Voltar ao catálogo

ATLAS 5 CENTAUR DEB

LostHEO
NORAD 44012·DEBRIS·🇺🇸 United States

Lançado Sep 17, 2014 de Cape Canaveral Space Force Station

Loading…

Próximas Passagens (próximas 24 horas)

TLE

ObsoletoSource: Space-Track

Época: Nov 13, 2023, 06:16 UTC

1 44012U 14055BT  23317.26173977 -.00000111  00000-0  00000+0 0  9997
2 44012  20.8522 268.8807 4583234 305.2062  19.9528  1.75154586 32616

Acompanhe ATLAS 5 CENTAUR DEB em tempo real com AllMySat

Download on the App Store